Regional Weather Roundup
Issued by NWS

Home | Current Version | Previous Version | Graphics & Text | Print | Product List | Glossary On
Versions: 1 2 3 4 5 6 7 8 9 10 11 12 13 14 15 16 17 18 19 20 21 22 23 24 25 26 27 28 29 30 31 32 33 34 35 36 37 38 39 40 41 42 43 44 45 46 47 48 49 50
000
ASUS43 KFSD 171710
RWRSD

WEATHER ROUNDUP FOR SOUTH DAKOTA
NATIONAL WEATHER SERVICE SIOUX FALLS SD
1100 AM CST SUN DEC 17 2017

NOTE: "FAIR" INDICATES FEW OR NO CLOUDS BELOW 12,000 FEET WITH NO
SIGNIFICANT WEATHER AND/OR OBSTRUCTIONS TO VISIBILITY.


SDZ001>005-009-010-012>017-171800-
NORTHWEST AND NORTH CENTRAL SOUTH DAKOTA

CITY           SKY/WX    TMP DP  RH WIND       PRES   REMARKS
BUFFALO          N/A     34  28  79 S9        29.87F WCI  27
FAITH            N/A     33  25  72 S8        29.98F WCI  26
MOBRIDGE       SUNNY     32  27  81 S3        29.99F
$$

SDZ012>016-024>037-041>051-057-063-072>074-171800-
SOUTHWEST AND SOUTH CENTRAL SOUTH DAKOTA

CITY           SKY/WX    TMP DP  RH WIND       PRES   REMARKS
RAPID CTY ARPT CLOUDY    32  25  75 S14       29.97F WCI  22
PIERRE         CLOUDY    33  31  92 CALM      30.05S
CUSTER         CLOUDY    24  20  84 W8        29.90F WCI  15
ELLSWORTH AFB  CLOUDY    32  28  85 S15       29.95F WCI  22
PHILIP         CLOUDY    34  29  82 CALM      30.04F
PINE RIDGE     CLOUDY    33  30  88 W5        30.01F WCI  29
SPEARFISH      FAIR      30  27  86 CALM      29.93R
WINNER         CLOUDY    37  32  82 W5        30.06R
$$

SDZ004>011-016>023-039-040-171800-
NORTHEAST SOUTH DAKOTA

CITY           SKY/WX    TMP DP  RH WIND       PRES   REMARKS
ABERDEEN       CLOUDY    33  29  85 S5        30.05F WCI  29
WATERTOWN      CLOUDY    32  30  92 CALM      30.02F
BROOKINGS      CLOUDY    31  30  96 CALM      30.05S
SISSETON         N/A     36  32  85 W5        30.04S
$$

SDZ017-020-022-023-036>040-048>070-171800-
SOUTHEAST SOUTH DAKOTA

CITY           SKY/WX    TMP DP  RH WIND       PRES   REMARKS
SIOUX FALLS    PTSUNNY   30  28  92 NE5       30.06R WCI  25
HURON          CLOUDY    36  33  89 MISG      30.06S
CHAMBERLAIN    CLOUDY    36  35  95 NW6       30.07S
MITCHELL       CLOUDY    35  32  88 NW6       30.08R
YANKTON        MOSUNNY   31  28  89 NW6       30.08R WCI  25
$$

ABBREVIATIONS USED IN REMARKS
   TC - TEMPERATURE IN CELSIUS
  WCI - WIND CHILL INDEX
   HX - HEAT INDEX
  VSB - VISIBILITY





USA.gov is the U.S. government's official web portal to all federal, state and local government web resources and services.